Weather History for Menominee, MI

Change the Weather History Date:

Monday, January 28, 2013

  Actual Average Record
Temperature  
Mean Temperature 32 °F -  
Max Temperature 35 °F 25 °F 44 °F (1989)
Min Temperature 28 °F 8 °F -22 °F (1966)
Degree Days  
Heating Degree Days 34    
Moisture  
Dew Point 31 °F    
Average Humidity 89    
Maximum Humidity 100    
Minimum Humidity 75    
Precipitation  
Precipitation 0.14 in - - ()
Sea Level Pressure  
Sea Level Pressure 29.87 in    
Wind  
Wind Speed 5 mph (SE)    
Max Wind Speed 10 mph    
Max Gust Speed -    
Visibility 7 miles    
Events      
Averages and records for this station are not official NWS values.
T = Trace of Precipitation, MM = Missing Value Source: NWS Daily Summary

Daily Weather History Graph

Daily Weather History Graph

Search for Another Location

Airport:

Trip Planner

Search our weather history database for the weather conditions in past years. The results will help you decide how hot, cold, wet, or windy it might be!

Date:

Astronomy

Jan. 28, 2013 Rise Set
Actual Time 7:14 AM CST 4:52 PM CST
Civil Twilight 6:43 AM CST 5:24 PM CST
Nautical Twilight 6:07 AM CST 6:00 PM CST
Astronomical Twilight 5:33 AM CST 6:34 PM CST
Moon 6:55 PM CST (1/28) 7:33 AM CST (1/28)
Length of Visible Light 10h 41m
Length of Day
9h 38m
Full, 98% of the Moon is Illuminated
Jan 28
Full
Feb 3
Last Quarter
Feb 10
New
Feb 17
First Quarter
Feb 25
Full

Hourly Weather History & Observations

Time (CST) Temp. Windchill Dew Point Humidity Pressure Visibility Wind Dir Wind Speed Gust Speed Precip Events Conditions
12:15 AM 33.8 °F 25.8 °F 30.2 °F 87% 29.90 in 7.0 mi SSE 10.4 mph - N/A   Overcast
12:35 AM 32.0 °F 24.8 °F 30.2 °F 93% 29.89 in 5.0 mi SSE 8.1 mph - N/A   Overcast
12:55 AM 30.2 °F 22.6 °F 30.2 °F 100% 29.88 in 5.0 mi SSE 8.1 mph - N/A   Overcast
1:15 AM 33.8 °F 27.7 °F 32.0 °F 93% 29.86 in 5.0 mi SSE 6.9 mph - N/A   Overcast
1:35 AM 32.0 °F 24.2 °F 30.2 °F 93% 29.85 in 7.0 mi SSE 9.2 mph - 0.01 in   Overcast
1:55 AM 32.0 °F 24.8 °F 32.0 °F 100% 29.85 in 5.0 mi SSE 8.1 mph - 0.01 in   Overcast
2:15 AM 32.0 °F 25.6 °F 32.0 °F 100% 29.84 in 4.0 mi SSE 6.9 mph - N/A   Overcast
2:35 AM 33.8 °F 27.7 °F 30.2 °F 87% 29.83 in 3.0 mi SSE 6.9 mph - 0.02 in   Overcast
2:55 AM 33.8 °F 28.6 °F 30.2 °F 87% 29.83 in 4.0 mi SSE 5.8 mph - 0.02 in   Overcast
3:15 AM 32.0 °F 26.4 °F 32.0 °F 100% 29.81 in 3.0 mi SSE 5.8 mph - N/A   Overcast
3:35 AM 30.2 °F 26.7 °F 30.2 °F 100% 29.80 in 3.0 mi South 3.5 mph - N/A   Overcast
3:55 AM 33.8 °F - 32.0 °F 93% 29.80 in 2.5 mi Calm Calm - N/A   Overcast
4:15 AM 33.8 °F - 32.0 °F 93% 29.80 in 2.0 mi Calm Calm - N/A   Overcast
4:35 AM 33.8 °F - 32.0 °F 93% 29.79 in 1.0 mi Calm Calm - N/A   Overcast
4:55 AM 33.8 °F - 32.0 °F 93% 29.79 in 0.5 mi Calm Calm - 0.02 in   Overcast
5:15 AM 30.2 °F - 30.2 °F 100% 29.79 in 1.0 mi Calm Calm - N/A   Overcast
5:35 AM 33.8 °F - 30.2 °F 87% 29.78 in 1.2 mi Calm Calm - 0.02 in   Overcast
5:55 AM 30.2 °F - 30.2 °F 100% 29.78 in 1.5 mi Calm Calm - 0.02 in   Overcast
6:15 AM 30.2 °F - 30.2 °F 100% 29.78 in 1.5 mi Calm Calm - 0.01 in   Overcast
6:35 AM 33.8 °F - 32.0 °F 93% 29.79 in 1.5 mi Calm Calm - 0.02 in   Overcast
6:55 AM 33.8 °F - 32.0 °F 93% 29.79 in 2.0 mi Calm Calm - 0.02 in   Overcast
7:15 AM 33.8 °F 30.8 °F 32.0 °F 93% 29.79 in 1.8 mi NW 3.5 mph - 0.01 in   Overcast
7:35 AM 28.4 °F - 28.4 °F 100% 29.79 in 2.0 mi Calm Calm - 0.01 in   Overcast
7:55 AM 33.8 °F - 30.2 °F 87% 29.80 in 2.0 mi Calm Calm - 0.02 in   Overcast
8:15 AM 32.0 °F - 32.0 °F 100% 29.81 in 2.0 mi Calm Calm - N/A   Overcast
8:35 AM 30.2 °F 26.7 °F 30.2 °F 100% 29.81 in 2.5 mi NW 3.5 mph - 0.01 in   Overcast
8:55 AM 33.8 °F 29.6 °F 30.2 °F 87% 29.82 in 4.0 mi WNW 4.6 mph - 0.01 in   Overcast
9:15 AM 33.8 °F 30.8 °F 30.2 °F 87% 29.83 in 4.0 mi WNW 3.5 mph - 0.01 in   Overcast
9:35 AM 33.8 °F 29.6 °F 33.8 °F 100% 29.84 in 5.0 mi NW 4.6 mph - 0.01 in   Overcast
9:55 AM 33.8 °F 28.6 °F 32.0 °F 93% 29.84 in 7.0 mi NW 5.8 mph - 0.01 in   Overcast
10:15 AM 33.8 °F 27.7 °F 32.0 °F 93% 29.85 in 9.0 mi NW 6.9 mph - N/A   Overcast
10:35 AM 33.8 °F 27.7 °F 32.0 °F 93% 29.86 in 10.0 mi NNW 6.9 mph - N/A   Overcast
10:55 AM 33.8 °F 26.4 °F 33.8 °F 100% 29.87 in 10.0 mi NNW 9.2 mph - 0.01 in   Overcast
11:15 AM 33.8 °F 27.0 °F 30.2 °F 87% 29.87 in 10.0 mi North 8.1 mph - N/A   Overcast
11:35 AM 33.8 °F 25.8 °F 30.2 °F 87% 29.87 in 10.0 mi NNW 10.4 mph - N/A   Overcast
11:55 AM 35.6 °F 29.9 °F 33.8 °F 93% 29.86 in 10.0 mi North 6.9 mph - N/A   Overcast
12:35 PM 35.6 °F 32.8 °F 32.0 °F 87% 29.87 in 10.0 mi North 3.5 mph - N/A   Overcast
12:55 PM 35.6 °F 29.9 °F 33.8 °F 93% 29.87 in 10.0 mi North 6.9 mph - N/A   Overcast
1:15 PM 35.6 °F 30.7 °F 30.2 °F 81% 29.88 in 10.0 mi NNW 5.8 mph - N/A   Overcast
1:35 PM 35.6 °F 31.7 °F 30.2 °F 81% 29.88 in 10.0 mi NW 4.6 mph - N/A   Overcast
1:55 PM 35.6 °F 31.7 °F 30.2 °F 81% 29.89 in 10.0 mi NNW 4.6 mph - N/A   Overcast
2:15 PM 35.6 °F 32.8 °F 30.2 °F 81% 29.89 in 10.0 mi NW 3.5 mph - N/A   Overcast
2:35 PM 35.6 °F 32.8 °F 30.2 °F 81% 29.90 in 10.0 mi NW 3.5 mph - N/A   Overcast
2:55 PM 35.6 °F 32.8 °F 28.4 °F 75% 29.91 in 10.0 mi North 3.5 mph - N/A   Overcast
3:15 PM 35.6 °F 32.8 °F 28.4 °F 75% 29.92 in 10.0 mi North 3.5 mph - N/A   Overcast
3:35 PM 35.6 °F 31.7 °F 32.0 °F 87% 29.92 in 10.0 mi North 4.6 mph - N/A   Overcast
3:55 PM 35.6 °F - 30.2 °F 81% 29.93 in 10.0 mi Calm Calm - N/A   Overcast
4:15 PM 33.8 °F 29.6 °F 28.4 °F 81% 29.93 in 10.0 mi North 4.6 mph - N/A   Overcast
4:35 PM 33.8 °F 30.8 °F 28.4 °F 81% 29.93 in 10.0 mi North 3.5 mph - N/A   Overcast
4:55 PM 33.8 °F - 28.4 °F 81% 29.94 in 10.0 mi Calm Calm - N/A   Overcast
5:15 PM 33.8 °F - 30.2 °F 87% 29.94 in 10.0 mi Calm Calm - N/A   Overcast
5:35 PM 33.8 °F - 30.2 °F 87% 29.95 in 10.0 mi Calm Calm - N/A   Overcast
5:55 PM 33.8 °F - 28.4 °F 81% 29.96 in 10.0 mi Calm Calm - N/A   Overcast
6:15 PM 33.8 °F 29.6 °F 28.4 °F 81% 29.96 in 10.0 mi ESE 4.6 mph - N/A   Overcast
6:35 PM 33.8 °F 28.6 °F 30.2 °F 87% 29.95 in 10.0 mi ESE 5.8 mph - N/A   Overcast
6:55 PM 32.0 °F 26.4 °F 30.2 °F 93% 29.95 in 10.0 mi SE 5.8 mph - N/A   Overcast
7:15 PM 33.8 °F 28.6 °F 30.2 °F 87% 29.94 in 10.0 mi SE 5.8 mph - N/A   Overcast
7:35 PM 33.8 °F 30.8 °F 30.2 °F 87% 29.95 in 10.0 mi SE 3.5 mph - N/A   Overcast
7:55 PM 33.8 °F 30.8 °F 30.2 °F 87% 29.95 in 10.0 mi South 3.5 mph - N/A   Overcast
8:15 PM 33.8 °F 29.6 °F 30.2 °F 87% 29.95 in 10.0 mi SSE 4.6 mph - N/A   Overcast
8:35 PM 33.8 °F 28.6 °F 30.2 °F 87% 29.95 in 10.0 mi SSE 5.8 mph - N/A   Overcast
8:55 PM 33.8 °F 27.0 °F 28.4 °F 81% 29.94 in 10.0 mi SSE 8.1 mph - N/A   Overcast
9:15 PM 33.8 °F 30.8 °F 30.2 °F 87% 29.94 in 10.0 mi South 3.5 mph - N/A   Mostly Cloudy
9:35 PM 32.0 °F 27.5 °F 28.4 °F 87% 29.93 in 10.0 mi SSE 4.6 mph - N/A   Overcast
9:55 PM 32.0 °F 26.4 °F 30.2 °F 93% 29.93 in 10.0 mi ESE 5.8 mph - N/A   Overcast
10:15 PM 32.0 °F 26.4 °F 30.2 °F 93% 29.93 in 10.0 mi South 5.8 mph - N/A   Overcast
10:35 PM 33.8 °F 28.6 °F 28.4 °F 81% 29.92 in 10.0 mi SE 5.8 mph - N/A   Overcast
10:55 PM 33.8 °F 29.6 °F 30.2 °F 87% 29.92 in 10.0 mi South 4.6 mph - N/A   Overcast
11:15 PM 33.8 °F 28.6 °F 30.2 °F 87% 29.91 in 10.0 mi SSE 5.8 mph - N/A   Overcast
11:35 PM 32.0 °F 26.4 °F 28.4 °F 87% 29.88 in 10.0 mi SSE 5.8 mph - N/A   Overcast
11:55 PM 33.8 °F 28.6 °F 30.2 °F 87% 29.88 in 10.0 mi SSE 5.8 mph - N/A   Overcast